Weather History for PACD - January, 2014

Change the Weather History Date:

Sunday, January 12, 2014

  Actual Average Record
Temperature  
Mean Temperature 39 °F 28 °F  
Max Temperature 41 °F 33 °F 59 °F (1947)
Min Temperature 36 °F 24 °F 2 °F (2004)
Degree Days  
Heating Degree Days 26 37  
Month to date heating degree days 325 436  
Since 1 July heating degree days 3671 4513  
Cooling Degree Days 0    
Month to date cooling degree days 0  
Year to date cooling degree days 0  
Moisture  
Dew Point 27 °F    
Average Humidity 63    
Maximum Humidity 73    
Minimum Humidity 45    
Precipitation  
Precipitation T in 0.10 in 0.86 in (2005)
Month to date precipitation 0.91 1.27  
Year to date precipitation 0.91 1.27  
Snow  
Snow T in 0.40 in 12.20 in (1982)
Month to date snowfall T 5.4  
Since 1 July snowfall 10.9 30.6  
Snow Depth 0.00 in    
Sea Level Pressure  
Sea Level Pressure 29.09 in    
Wind  
Wind Speed 18 mph (SSW)    
Max Wind Speed 35 mph    
Max Gust Speed 39 mph    
Visibility 10 miles    
Events      
T = Trace of Precipitation, MM = Missing Value Source: NWS Daily Summary

Daily Weather History Graph

Daily Weather History Graph

Search for Another Location

Airport or City:

Trip Planner

Search our weather history database for the weather conditions in past years. The results will help you decide how hot, cold, wet, or windy it might be!

Date:

Astronomy

Jan. 12, 2014 Rise Set
Actual Time 10:10 AM AKST 5:48 PM AKST
Civil Twilight 9:26 AM AKST 6:32 PM AKST
Nautical Twilight 8:40 AM AKST 7:19 PM AKST
Astronomical Twilight 7:56 AM AKST 8:03 PM AKST
Moon 3:29 PM AKST (1/12) 7:15 AM AKST (1/12)
Length of Visible Light 9h 05m
Length of Day
7h 38m
Waxing Gibbous, 90% of the Moon is Illuminated
Jan 12
Waxing Gibbous
Jan 15
Full
Jan 23
Last Quarter
Jan 30
New
Feb 6
First Quarter

Hourly Weather History & Observations

Time (AKST) Temp. Windchill Dew Point Humidity Pressure Visibility Wind Dir Wind Speed Gust Speed Precip Events Conditions
12:53 AM 37.0 °F 28.1 °F 27.0 °F 67% 28.98 in 10.0 mi SW 15.0 mph - N/A   Mostly Cloudy
1:53 AM 37.0 °F 27.0 °F 27.0 °F 67% 28.99 in 10.0 mi SW 18.4 mph - N/A   Scattered Clouds
2:53 AM 37.0 °F 27.7 °F 27.0 °F 67% 28.99 in 10.0 mi SW 16.1 mph - N/A   Scattered Clouds
3:53 AM 37.0 °F 28.5 °F 27.0 °F 67% 29.00 in 10.0 mi SSW 13.8 mph - N/A   Scattered Clouds
4:53 AM 37.9 °F 27.6 °F 28.0 °F 68% 29.00 in 10.0 mi SW 20.7 mph - N/A   Scattered Clouds
5:53 AM 37.0 °F 27.0 °F 27.0 °F 67% 29.01 in 10.0 mi SW 18.4 mph - N/A   Scattered Clouds
6:53 AM 37.0 °F 26.2 °F 26.1 °F 65% 29.01 in 10.0 mi SW 21.9 mph 27.6 mph N/A   Scattered Clouds
7:53 AM 37.9 °F 27.6 °F 27.0 °F 65% 29.02 in 10.0 mi SSW 20.7 mph 29.9 mph N/A   Scattered Clouds
8:53 AM 37.9 °F 28.2 °F 26.1 °F 62% 29.03 in 10.0 mi SW 18.4 mph 27.6 mph N/A   Mostly Cloudy
9:53 AM 37.9 °F 27.3 °F 26.1 °F 62% 29.04 in 10.0 mi SW 21.9 mph 31.1 mph N/A   Mostly Cloudy
10:53 AM 37.9 °F 28.2 °F 24.1 °F 57% 29.07 in 10.0 mi SSW 18.4 mph 24.2 mph N/A   Scattered Clouds
11:53 AM 39.0 °F 29.0 °F 25.0 °F 57% 29.08 in 10.0 mi SSW 20.7 mph 29.9 mph N/A   Scattered Clouds
12:53 PM 39.0 °F 32.3 °F 25.0 °F 57% 29.10 in 10.0 mi SSE 10.4 mph - N/A   Scattered Clouds
1:53 PM 41.0 °F 32.5 °F 28.0 °F 60% 29.08 in 10.0 mi SSW 17.3 mph 29.9 mph N/A   Mostly Cloudy
2:53 PM 39.0 °F 28.5 °F 30.0 °F 70% 29.06 in 10.0 mi SW 23.0 mph 34.5 mph N/A   Mostly Cloudy
3:53 PM 39.9 °F 29.2 °F 30.9 °F 70% 29.10 in 10.0 mi SW 25.3 mph 33.4 mph 0.00 in   Mostly Cloudy
4:53 PM 37.0 °F 28.9 °F 28.9 °F 73% 29.14 in 10.0 mi WSW 12.7 mph - N/A   Clear
5:53 PM 37.9 °F 32.1 °F 30.0 °F 73% 29.17 in 10.0 mi SSW 8.1 mph - 0.00 in   Clear
6:53 PM 39.0 °F 29.9 °F 28.9 °F 67% 29.19 in 10.0 mi SSW 17.3 mph - N/A   Clear
7:53 PM 39.0 °F 28.8 °F 27.0 °F 62% 29.20 in 10.0 mi SW 21.9 mph 28.8 mph N/A   Clear
8:53 PM 39.0 °F 28.0 °F 25.0 °F 57% 29.21 in 10.0 mi SW 25.3 mph 32.2 mph N/A   Clear
9:53 PM 37.9 °F 26.8 °F 23.0 °F 55% 29.24 in 10.0 mi SSW 24.2 mph - N/A   Clear
10:53 PM 36.0 °F 27.5 °F 28.0 °F 73% 29.27 in 8.0 mi South 12.7 mph - 0.00 in   Scattered Clouds
11:53 PM 37.9 °F 27.9 °F 25.0 °F 60% 29.28 in 10.0 mi SSW 19.6 mph 24.2 mph N/A   Clear